Location: G�rnowo
(53.0478°N, 14.6750°E)
Time: 18:44:06
(UTC+00:00)

Daily predictions for brighter satellites

Satellite Brightness Start Highest point End
(mag) Time Altitude Azimuth Time Altitude Azimuth Time Altitude Azimuth
Meteor 1-14 Rocket 4.2 17:20:26 10° S 17:25:53 62° E 17:31:22 10° NNE
Okean O Rocket 3.8 17:22:19 10° SSW 17:26:12 32° W 17:30:08 10° NNW
Cosmos 1500 3.1 17:24:05 10° S 17:27:46 60° E 17:31:28 10° NNE
Cosmos 2360 Rocket 2.2 17:22:16 10° SSW 17:27:50 65° ESE 17:33:29 10° NE
Okean 1-7 3.1 17:24:23 10° N 17:28:44 60° ENE 17:33:00 10° SSE
SJ-11-01 4.3 17:24:12 10° SSE 17:28:53 75° ENE 17:33:37 10° NNW
Cosmos 1943 Rocket 3.9 17:25:21 10° NNW 17:29:06 17° NNE 17:32:49 10° ENE
USA 186 3.2 17:28:39 10° E 17:30:13 15° ENE 17:31:49 10° NNE
PSLV R/B 4.3 17:26:44 10° NNE 17:30:38 41° E 17:34:28 10° S
Cosmos 1844 4.2 17:25:16 10° NW 17:31:01 68° WSW 17:36:41 10° SSE
OBJECT-B 2.7 17:29:44 10° E 17:31:29 14° ENE 17:33:13 10° NNE
Cosmos 2341 Rocket 4.2 17:25:54 10° SSE 17:31:55 50° E 17:37:55 10° NNE
Cosmos 2278 Rocket 2.7 17:28:22 10° NNW 17:33:47 43° NE 17:39:10 10° ESE
YAOGAN 1 2.6 17:30:00 10° SSE 17:34:20 86° ENE 17:38:41 10° NNW
Cosmos 2237 Rocket 3.8 17:33:53 10° ESE 17:35:57 12° E 17:38:02 10° ENE
SJ 16-02 2.0 17:32:50 10° NNW 17:36:58 37° ENE 17:41:04 10° SE
SAR-Lupe-4 4.2 17:33:47 10° NNE 17:37:04 33° E 17:40:20 10° SSE
FALCON 9 DEB 3.4 17:35:04 10° W 17:38:11 55° SSW 17:41:18 10° ESE
COSMO-SKYMED 1 3.0 17:37:43 10° N 17:42:04 70° WNW 17:46:23 10° SSW
Meteor 1-5 Rocket 4.2 17:36:49 10° S 17:42:08 57° E 17:47:39 10° NNE
Okean 3 3.8 17:38:08 10° N 17:42:15 44° ENE 17:46:21 10° SE
Cosmos 2218 Rocket 4.4 17:36:52 10° SSE 17:42:47 42° E 17:48:42 10° NNE
SL-4 R/B 3.4 17:39:58 10° W 17:43:03 27° SSW 17:46:02 10° SSE
SeaSat 1 3.6 17:40:40 10° NE 17:44:33 23° ESE 17:48:24 10° SSE
Cosmos 1980 Rocket 4.2 17:40:04 10° W 17:44:50 27° NW 17:49:39 10° NNE
Cosmos 1536 3.8 17:42:34 10° SE 17:45:53 26° E 17:49:13 10° NNE
FALCON 9 DEB 3.7 17:43:00 10° W 17:46:05 46° SSW 17:49:08 10° SE
Cosmos 2242 Rocket 3.7 17:41:39 10° NNW 17:46:10 82° W 17:50:36 10° S
MOS 1 Rocket 4.3 17:42:12 10° N 17:47:15 59° WNW 17:52:30 10° SSW
Cosmos 1633 Rocket 4.5 17:43:25 10° SW 17:47:40 44° WNW 17:51:56 10° N
MetOp-A 4.5 17:45:43 10° SE 17:50:49 46° ENE 17:55:56 10° N
Gbstr 26 Del rocket 3.4 17:46:31 10° W 17:50:55 73° S 17:55:47 13° ESE
Abrixas rocket 3.9 17:52:53 10° WSW 17:54:36 17° SSW 17:56:18 10° SSE
Cosmos 2333 Rocket 2.4 17:49:49 10° S 17:55:17 50° ESE 18:00:49 10° NE
Resurs 01 Rocket 3.3 17:54:08 13° E 17:56:06 17° NE 17:58:59 10° NNE
Meteor 2-4 Rocket 4.4 17:51:13 10° NNW 17:57:02 65° W 18:02:54 10° S
SAR-Lupe-1 4.1 17:54:00 10° NNE 17:57:34 55° ESE 18:01:06 10° S
Helios 1A Rocket 2.9 17:56:58 10° SSE 18:01:01 85° WSW 18:05:05 10° NNW
Cosmos 2322 Rocket 3.0 17:56:02 10° SW 18:01:32 53° NW 18:07:04 10° NNE
Lacrosse 4 Rocket 1.7 17:58:13 10° SSW 18:02:30 50° ESE 18:06:51 10° NE
GP-B 3.1 17:58:47 10° S 18:03:13 86° E 18:07:42 10° N
ARGOS 3.5 17:59:52 10° S 18:05:18 72° WSW 18:10:46 10° NNW
ERBS 3.2 18:04:01 10° WNW 18:07:10 40° N 18:09:27 16° ENE
CZ-4B R/B 3.2 18:05:52 10° N 18:08:40 32° WNW 18:11:28 10° SW
Cosmos 192 4.3 18:04:08 10° SSW 18:09:00 67° ESE 18:13:54 10° NNE
Cosmos 1869 Rocket 3.5 18:05:33 10° S 18:09:53 62° E 18:14:16 10° NNE
CZ-4 R/B 3.1 18:07:11 10° SSW 18:10:47 35° W 18:14:29 10° NNW
Resurs 1-3 4.5 18:08:04 16° ESE 18:10:47 31° ENE 18:14:39 10° N
Cosmos 2219 Rocket 2.2 18:06:17 10° S 18:11:45 57° ESE 18:17:16 10° NE
ERS-2 2.0 18:09:35 10° NNE 18:13:15 85° ESE 18:16:55 10° SSW
CZ-2C R/B 2.6 18:08:05 10° NNE 18:13:33 67° ESE 18:18:51 10° S
FALCON 9 DEB 4.3 18:11:46 10° W 18:14:38 31° SSW 18:16:46 15° SSE
Cosmos 1689 Rocket 2.1 18:12:00 10° N 18:14:53 75° WNW 18:17:46 10° SSW
Cosmos 1378 3.0 18:13:46 10° N 18:17:31 76° ENE 18:21:13 10° SSE
Cosmos 1238 Rocket 3.0 18:14:24 10° SSE 18:18:03 39° E 18:21:12 10° NNE
USA 305 3.0 18:15:47 10° WNW 18:20:03 72° SSW 18:22:40 23° ESE
SL-08 RB Rocket 4.1 18:15:40 10° S 18:20:12 68° WSW 18:24:49 10° NNW
FALCON 9 DEB 4.3 18:21:13 10° W 18:24:06 32° SSW 18:25:51 18° SSE
CREW DRAGON DEMO-1 DEB 4.2 18:21:55 10° SSW 18:23:59 22° SSE 18:23:59 22° SSE
NOSS 3-2 (A) 3.8 18:19:08 10° S 18:24:20 38° ESE 18:30:16 10° NE
COSMOS 2428 2.7 18:20:53 10° SSW 18:26:29 62° ESE 18:32:07 10° NE
Cosmos 1733 Rocket 3.6 18:23:18 10° SSE 18:27:14 34° E 18:31:12 10° NNE
SL-16 R/B 3.9 18:25:03 10° WSW 18:30:09 33° NW 18:35:17 10° NNE
Meteor 2-20 4.4 18:26:55 10° N 18:33:03 76° ENE 18:39:12 10° SSE
USA 307 3.1 18:29:32 10° WNW 18:33:48 66° SSW 18:35:52 29° SE
Cosmos 2369 Rocket 3.7 18:29:30 10° NNW 18:33:50 22° NNE 18:36:12 17° ENE
USA 306 3.1 18:30:48 10° WNW 18:35:04 64° SSW 18:37:06 29° SE
SL-8 Rocket 4.1 18:29:12 10° SSW 18:35:25 81° W 18:41:39 10° N
Cosmos 1066 Rocket 4.5 18:30:04 10° NNW 18:35:49 77° W 18:41:39 10° S
Cosmos 1898 Rocket 3.6 18:30:57 10° NNW 18:36:08 59° ENE 18:39:11 24° SE
CENTAUR R/B 3.1 18:30:52 10° S 18:36:09 33° ESE 18:42:16 10° NE
ATLAS CENTAUR R/B 2.6 18:34:27 10° W 18:37:49 34° NNW 18:41:19 10° NE
NOSS 0 Rocket 4.2 18:32:12 10° S 18:37:56 43° ESE 18:43:41 10° NE
Cosmos 1743 2.9 18:38:03 10° S 18:41:48 48° E 18:45:34 10° NNE
Cosmos 1666 4.0 18:40:12 10° SW 18:43:45 40° WNW 18:47:20 10° N
USA 308 3.2 18:40:22 10° WNW 18:44:35 60° SSW 18:46:15 33° SE
Meteor 1-23 Rocket 4.3 18:40:38 10° NNW 18:46:15 80° W 18:51:55 10° S
Cosmos 2322 3.9 18:41:45 10° SW 18:47:29 73° NW 18:53:13 10° NNE
ASTEX 1 3.2 18:45:08 10° N 18:50:03 80° E 18:54:57 10° S
Cosmos 1674 Rocket 3.4 18:49:23 10° N 18:53:41 65° ENE 18:55:15 37° SE
Cosmos 2366 rocket 4.2 18:47:21 10° SSW 18:53:41 75° WNW 19:00:06 10° N
Landsat 7 4.3 18:55:43 36° E 18:56:22 38° ENE 19:00:46 10° N
SJ-6B 3.2 18:52:44 12° S 18:56:24 65° WSW 19:00:23 10° NNW
Cosmos 990 Rocket 3.9 18:51:26 10° NNW 18:56:39 88° WSW 18:59:40 26° SSE
Cosmos 2221 Rocket 3.9 18:53:16 10° NNW 18:57:41 66° W 19:02:05 10° S
Ariane Rocket 3.0 18:55:34 14° SSE 18:59:56 82° WSW 19:05:04 10° NNW
USA 186 3.3 18:59:36 19° SW 19:00:48 28° W 19:03:10 10° NNW
Cosmos 2297 4.0 18:55:14 10° NNW 19:00:52 51° NE 19:02:40 38° E
ARIANE 5 R/B 3.8 19:01:45 27° NE 19:01:45 27° NE 19:05:13 10° N
OBJECT-B 1.4 19:02:09 32° SSW 19:03:21 55° W 19:06:32 10° NNW
Cosmos 1763 Rocket 3.8 18:58:49 10° S 19:03:49 43° ESE 19:08:50 10° NE
Okean 2 3.6 19:00:56 10° N 19:04:48 50° ENE 19:04:48 50° ENE
MetOp-B 4.4 19:04:20 40° ESE 19:05:36 48° ENE 19:10:46 10° N
NOSS 3-2 (C) 3.6 19:00:40 10° S 19:06:00 43° ESE 19:08:11 32° ENE
Meteor 1-11 Rocket 4.3 19:02:10 10° SSW 19:07:44 59° WNW 19:13:15 10° N
Cosmos 1378 Rocket 3.4 19:03:42 10° N 19:08:11 76° ENE 19:09:21 49° SSE
Cosmos 2360 Rocket 3.9 19:07:09 10° WSW 19:12:16 33° NW 19:17:25 10° NNE
Cosmos 1975 Rocket 4.2 19:09:36 10° N 19:12:45 30° NE 19:12:45 30° NE
Cosmos 1707 4.1 19:10:12 10° N 19:12:28 27° NNE 19:12:28 27° NNE
Cosmos 1943 Rocket 2.6 19:08:50 10° NNW 19:14:20 46° NE 19:15:25 41° E
Cosmos 468 Rocket 4.0 19:10:18 10° S 19:15:28 55° ESE 19:20:38 10° NNE
SJ 16-02 2.9 19:11:32 10° NW 19:15:30 33° WSW 19:19:19 11° SSW
DMSP B5D2-2 4.5 19:10:42 10° N 19:15:53 63° WNW 19:21:02 10° SSW
Cosmos 858 Rocket 4.4 19:12:06 10° NNW 19:17:20 84° ENE 19:18:47 49° SSE
Cosmos 1821 Rocket 3.8 19:11:39 10° S 19:17:51 81° E 19:24:01 10° NNE
Cosmos 2278 Rocket 3.1 19:12:34 10° NW 19:17:58 46° WSW 19:22:11 16° S
Cosmos 2237 Rocket 2.1 19:13:17 10° SSW 19:18:53 62° ESE 19:24:31 10° NE
Cosmos 1544 3.5 19:16:01 10° SSW 19:19:37 60° WNW 19:23:17 10° N
Meteor 1-21 4.1 19:15:31 10° N 19:21:15 75° ENE 19:23:05 45° SSE
Cosmos 1536 4.4 19:18:29 10° SW 19:22:11 35° WNW 19:25:53 10° N
SeaSat 1 2.6 19:17:35 10° NNE 19:22:33 75° NW 19:27:28 10° SW
USA 81 4.0 19:18:15 10° S 19:23:33 85° W 19:28:51 10° N
SPOT 3 Rocket 3.5 19:24:24 46° SSE 19:26:02 88° ENE 19:31:19 10° NNW
Cosmos 2239 Rocket 4.4 19:21:16 10° S 19:27:33 80° E 19:33:50 10° NNE
SME Rocket 4.3 19:22:25 10° NNE 19:30:28 75° WNW 19:35:40 10° SSW
Cosmos 1934 Rocket 3.9 19:30:07 47° SSE 19:31:40 62° E 19:37:46 10° NNE
Resurs 01 Rocket 1.5 19:31:41 73° SSW 19:32:03 83° WSW 19:36:31 10° NNW
USA 234 3.4 19:33:09 47° SE 19:33:21 47° SE 19:39:36 10° SSW
SPOT 1/Viking Rocket 3.6 19:33:56 59° ENE 19:33:59 59° ENE 19:39:05 10° N
USA 245 4.4 19:35:04 56° ESE 19:36:08 66° ENE 19:42:26 10° N
Gbstr 26 Del rocket 4.3 19:33:05 10° W 19:37:37 39° SSW 19:38:19 37° S
Cosmos 1937 Rocket 3.7 19:33:34 10° NNW 19:38:42 67° WSW 19:39:49 51° SSW
Cosmos 2123 Rocket 3.9 19:32:30 10° N 19:38:47 89° W 19:41:02 43° S
Cosmos 2333 Rocket 3.5 19:34:20 10° WSW 19:39:43 41° NW 19:45:10 10° NNE
Lacrosse 4 Rocket 3.2 19:37:17 10° WSW 19:41:23 34° NW 19:45:31 10° NNE
ERBS 4.2 19:40:25 10° WNW 19:42:16 29° NW 19:42:16 29° NW
IGS 5A 3.8 19:44:27 61° NNW 19:44:27 61° NNW 19:47:57 10° NNW
SPOT 5 4.1 19:45:45 28° NNE 19:45:45 28° NNE 19:48:21 10° N
Cosmos 1842 4.0 19:41:34 10° NNW 19:45:12 50° W 19:45:12 50° W
USA 238 DEB 3.5 19:39:17 10° SW 19:45:55 85° SE 19:52:56 10° NE
Cosmos 2298 Rocket 4.4 19:40:47 10° NNW 19:45:37 50° NE 19:45:37 50° NE
USA 238 3.5 19:39:24 10° SW 19:46:02 85° SE 19:53:03 10° NE
Cosmos 2219 Rocket 3.6 19:50:51 10° WSW 19:56:00 36° NW 20:01:12 10° NNE
Terra 3.2 20:00:53 28° NNE 20:00:53 28° NNE 20:03:35 10° N
ERS-1 Rocket 3.7 20:03:06 44° NNE 20:03:06 44° NNE 20:06:49 10° N
Cosmos 1980 3.9 19:58:03 10° SW 20:03:42 68° NW 20:09:22 10° NNE
Cosmos 1656 Rocket 4.4 20:02:40 10° NNW 20:07:03 40° NNE 20:07:03 40° NNE
COSMOS 2428 4.2 20:05:57 10° WSW 20:11:08 35° NW 20:16:21 10° NNE
Meteor 2-9 Rocket 4.3 20:10:29 58° WSW 20:11:15 65° WNW 20:16:34 10° N
Spot 2 Rocket 3.8 20:14:35 64° NNW 20:14:35 64° NNW 20:18:57 10° NNW
NOSS 3-2 (A) 3.8 20:08:59 10° WSW 20:14:50 66° NW 20:21:44 10° NE
Cosmos 1605 Rocket 3.9 20:15:57 79° NE 20:15:57 79° NE 20:22:03 10° NNE
ATLAS CENTAUR R/B 3.8 20:15:21 10° NW 20:17:43 16° N 20:17:48 16° N
Cosmos 2369 Rocket 2.5 20:13:15 10° NNW 20:18:00 60° N 20:18:00 60° N
CENTAUR R/B 2.7 20:19:59 10° SW 20:26:12 76° NW 20:33:44 10° NE
ARIANE 5 R/B 4.3 20:39:17 33° NW 20:39:17 33° NW 20:42:04 10° NNW
USA 281 3.5 20:54:08 57° NNE 20:54:08 57° NNE 20:59:41 10° NNW
NOSS 3-2 (C) 3.9 20:50:50 10° WSW 21:02:26 15° NE 21:03:37 10° NE
Cosmos 1943 Rocket 3.4 20:52:46 10° NW 20:56:57 37° W 20:56:57 37° W
Cosmos 2237 Rocket 3.6 20:58:08 10° WSW 21:03:19 35° NW 21:08:32 10° NNE
Resurs 01 Rocket 4.4 21:09:14 12° W 21:09:17 12° W 21:11:04 10° WNW
Lacrosse 4 Rocket 4.4 21:18:53 10° NW 21:21:23 14° NNW 21:22:04 14° N
SL-16 R/B 4.2 21:29:37 21° NNE 21:29:37 21° NNE 21:31:30 10° NNE
Terra 4.2 21:39:46 19° NW 21:39:46 19° NW 21:41:21 10° NNW
Cosmos 2369 Rocket 4.4 21:57:57 10° NW 21:59:48 18° WNW 21:59:48 18° WNW
CENTAUR R/B 3.9 22:11:41 10° W 22:18:00 40° NNW 22:25:26 10° ENE
Cosmos 1980 Rocket 4.4 22:58:07 10° NNW 23:00:18 21° N 23:00:18 21° N
Cosmos 2322 Rocket 4.5 23:15:48 10° NNW 23:19:21 19° NNE 23:19:21 19° NNE
ATLAS 3B R/B 4.0 23:35:00 34° NNE 23:35:00 34° NNE 23:39:36 10° NE
SL-16 R/B 4.4 23:44:05 10° NNW 23:46:41 22° N 23:46:41 22° N
